User: anonymous
Location: Pine Mountain Observatory
(43.7910°N, 120.9377°W)
Time: 02:59:57
(UTC-07:00)
Language:

IDEFIX/ARIANE 42P - Orbit

View from above orbital plane
View from above orbital plane
View from above satellite
View from above satellite

Ground track
Ground track

The orbit data is extracted from the following two-line orbital elements,

1 27422U 02021B   14237.19961198  .00000042  00000-0  32840-4 0  5693
2 27422 098.2942 276.3876 0012886 045.2195 356.6579 14.29041798639995
Epoch (UTC): 25 August 2014 04:47:26
Eccentricity: 0.0012886
inclination: 98.2942°
perigee height: 785 km
apogee height: 804 km
right ascension of ascending node: 276.3876°
argument of perigee: 45.2195°
revolutions per day: 14.29041798
mean anomaly at epoch: 356.6579°
orbit number at epoch: 63999

The dashed part of the orbit path shows where the satellite is in the earth's shadow,  

DLR